{"data":{"norad_id":67088,"epoch":"2026-05-25T04:49:22.683072Z","epoch_age_seconds":50935,"freshness":"FRESH","line1":"1 67088U 25298P   26145.20095698  .00001748  00000+0  15426-3 0  9992","line2":"2 67088  70.0006 181.7146 0004628 264.5596  95.5035 14.98334391 24670","mean_motion":14.98334391,"eccentricity":0.0004628,"inclination_deg":70.0006,"raan_deg":181.7146,"arg_perigee_deg":264.5596,"mean_anomaly_deg":95.5035,"bstar":0.00015426,"rev_number":2467,"period_min":96.106717475725,"perigee_km":568.82576918662,"apogee_km":575.25885515797,"semimajor_km":6950.1793121723,"source":"CELESTRAK","updated_at":"2026-05-25T13:38:21.469002Z"}}